Wetterdaten: aktuell Dienstag, 05.05.2026 01:33
Datum Zeit Temp. A. Feuchte A. Luftdruck Regen Wind Richtung Richtung Sonnenschein Regendauer Taupunkt Windchill
05.05.2026 01:33 16,6 °C 64 % 1008,0 hPa 0,0 mm 0,0 km/h (0 Bft) NO 55 ° 0 min 0 min 9,8 °C 16,6 °C
05.05.2026 01:28 16,5 °C 65 % 1008,0 hPa 0,0 mm 2,3 km/h (1 Bft) N 350 ° 0 min 0 min 9,9 °C 16,5 °C
05.05.2026 01:23 16,8 °C 64 % 1007,9 hPa 0,0 mm 0,0 km/h (0 Bft) W 270 ° 0 min 0 min 10,0 °C 16,8 °C
05.05.2026 01:18 16,5 °C 65 % 1008,0 hPa 0,0 mm 1,3 km/h (1 Bft) W 260 ° 0 min 0 min 9,9 °C 16,5 °C
05.05.2026 01:13 16,3 °C 65 % 1008,0 hPa 0,0 mm 0,0 km/h (0 Bft) NW 325 ° 0 min 0 min 9,7 °C 16,3 °C
05.05.2026 01:08 16,6 °C 64 % 1008,0 hPa 0,0 mm 0,0 km/h (0 Bft) NW 315 ° 0 min 0 min 9,8 °C 16,6 °C
05.05.2026 01:03 16,4 °C 65 % 1008,0 hPa 0,0 mm 0,0 km/h (0 Bft) NW 305 ° 0 min 0 min 9,8 °C 16,4 °C
05.05.2026 00:58 16,6 °C 65 % 1008,0 hPa 0,0 mm 0,0 km/h (0 Bft) NW 315 ° 0 min 0 min 10,0 °C 16,6 °C
05.05.2026 00:53 16,6 °C 64 % 1008,0 hPa 0,0 mm 0,5 km/h (0 Bft) NW 305 ° 0 min 0 min 9,8 °C 16,6 °C
05.05.2026 00:48 16,6 °C 65 % 1008,0 hPa 0,0 mm 2,5 km/h (1 Bft) W-SW 250 ° 0 min 0 min 10,0 °C 16,6 °C
05.05.2026 00:43 16,5 °C 65 % 1008,0 hPa 0,0 mm 0,4 km/h (0 Bft) S-SO 165 ° 0 min 0 min 9,9 °C 16,5 °C
05.05.2026 00:38 16,5 °C 65 % 1008,0 hPa 0,0 mm 1,3 km/h (1 Bft) S 180 ° 0 min 0 min 9,9 °C 16,5 °C
05.05.2026 00:33 16,8 °C 65 % 1007,9 hPa 0,0 mm 0,0 km/h (0 Bft) N 5 ° 0 min 0 min 10,2 °C 16,8 °C
05.05.2026 00:28 17,0 °C 63 % 1007,9 hPa 0,0 mm 0,0 km/h (0 Bft) NO 40 ° 0 min 0 min 9,9 °C 17,0 °C
05.05.2026 00:23 16,7 °C 65 % 1008,0 hPa 0,0 mm 5,1 km/h (1 Bft) W-NW 300 ° 0 min 0 min 10,1 °C 16,7 °C
05.05.2026 00:18 18,1 °C 58 % 1007,7 hPa 0,0 mm 8,2 km/h (2 Bft) N 0 ° 0 min 0 min 9,7 °C 18,1 °C
05.05.2026 00:13 17,8 °C 61 % 1007,7 hPa 0,0 mm 11,6 km/h (2 Bft) N 355 ° 0 min 0 min 10,2 °C 17,8 °C
05.05.2026 00:08 17,8 °C 61 % 1007,7 hPa 0,0 mm 9,4 km/h (2 Bft) N 0 ° 0 min 0 min 10,2 °C 17,8 °C
05.05.2026 00:03 17,1 °C 65 % 1007,9 hPa 0,0 mm 16,4 km/h (3 Bft) N 355 ° 0 min 0 min 10,5 °C 17,1 °C
04.05.2026 23:58 16,6 °C 66 % 1009,0 hPa 0,0 mm 5,3 km/h (1 Bft) N 5 ° 0 min 0 min 10,2 °C 16,6 °C
04.05.2026 23:53 16,6 °C 66 % 1009,0 hPa 0,0 mm 4,7 km/h (1 Bft) N-NW 330 ° 0 min 0 min 10,2 °C 16,6 °C
04.05.2026 23:48 17,1 °C 65 % 1008,9 hPa 0,0 mm 6,0 km/h (2 Bft) N 350 ° 0 min 0 min 10,5 °C 17,1 °C
04.05.2026 23:43 17,1 °C 65 % 1008,9 hPa 0,0 mm 0,0 km/h (0 Bft) SW 225 ° 0 min 0 min 10,5 °C 17,1 °C
04.05.2026 23:38 17,0 °C 65 % 1009,0 hPa 0,0 mm 1,8 km/h (1 Bft) S 170 ° 0 min 0 min 10,4 °C 17,0 °C
04.05.2026 23:33 16,9 °C 65 % 1009,0 hPa 0,0 mm 2,0 km/h (1 Bft) W 270 ° 0 min 0 min 10,3 °C 16,9 °C
04.05.2026 23:28 17,0 °C 65 % 1009,0 hPa 0,0 mm 1,6 km/h (1 Bft) W-SW 240 ° 0 min 0 min 10,4 °C 17,0 °C
04.05.2026 23:23 16,9 °C 65 % 1009,0 hPa 0,0 mm 0,0 km/h (0 Bft) SO 145 ° 0 min 0 min 10,3 °C 16,9 °C
04.05.2026 23:18 16,8 °C 65 % 1009,0 hPa 0,0 mm 0,0 km/h (0 Bft) W-SW 240 ° 0 min 0 min 10,2 °C 16,8 °C
04.05.2026 23:13 16,9 °C 65 % 1009,0 hPa 0,0 mm 0,0 km/h (0 Bft) W-SW 240 ° 0 min 0 min 10,3 °C 16,9 °C
04.05.2026 23:08 17,1 °C 64 % 1008,9 hPa 0,0 mm 0,0 km/h (0 Bft) O-NO 65 ° 0 min 0 min 10,2 °C 17,1 °C
04.05.2026 23:03 17,0 °C 64 % 1009,0 hPa 0,0 mm 0,0 km/h (0 Bft) O 100 ° 0 min 0 min 10,1 °C 17,0 °C
04.05.2026 22:58 17,0 °C 64 % 1009,0 hPa 0,0 mm 0,5 km/h (0 Bft) S 170 ° 0 min 0 min 10,1 °C 17,0 °C
04.05.2026 22:53 16,9 °C 65 % 1009,0 hPa 0,0 mm 1,8 km/h (1 Bft) NW 315 ° 0 min 0 min 10,3 °C 16,9 °C
04.05.2026 22:48 17,2 °C 64 % 1008,9 hPa 0,0 mm 0,0 km/h (0 Bft) S-SW 200 ° 0 min 0 min 10,3 °C 17,2 °C
04.05.2026 22:43 17,2 °C 64 % 1007,9 hPa 0,0 mm 0,0 km/h (0 Bft) W-SW 245 ° 0 min 0 min 10,3 °C 17,2 °C
04.05.2026 22:38 16,9 °C 65 % 1007,9 hPa 0,0 mm 4,9 km/h (1 Bft) SO 140 ° 0 min 0 min 10,3 °C 16,9 °C
04.05.2026 22:33 16,7 °C 65 % 1008,0 hPa 0,0 mm 9,8 km/h (2 Bft) W 260 ° 0 min 0 min 10,1 °C 16,7 °C
04.05.2026 22:27 17,2 °C 63 % 1008,9 hPa 0,0 mm 0,0 km/h (0 Bft) W 265 ° 0 min 0 min 10,1 °C 17,2 °C
04.05.2026 22:23 17,4 °C 63 % 1008,9 hPa 0,0 mm 3,7 km/h (1 Bft) NW 315 ° 0 min 0 min 10,3 °C 17,4 °C
04.05.2026 22:18 17,0 °C 65 % 1009,0 hPa 0,0 mm 2,0 km/h (1 Bft) N-NW 335 ° 0 min 0 min 10,4 °C 17,0 °C
04.05.2026 22:13 17,2 °C 66 % 1008,9 hPa 0,0 mm 4,2 km/h (1 Bft) W-SW 255 ° 0 min 0 min 10,8 °C 17,2 °C
04.05.2026 22:08 18,1 °C 62 % 1008,7 hPa 0,0 mm 4,6 km/h (1 Bft) NO 50 ° 0 min 0 min 10,7 °C 18,1 °C
04.05.2026 22:03 18,0 °C 61 % 1008,8 hPa 0,0 mm 0,0 km/h (0 Bft) NW 320 ° 0 min 0 min 10,4 °C 18,0 °C
04.05.2026 21:58 18,2 °C 62 % 1009,8 hPa 0,0 mm 1,1 km/h (1 Bft) W 280 ° 0 min 0 min 10,8 °C 18,2 °C
04.05.2026 21:53 18,4 °C 59 % 1009,7 hPa 0,0 mm 0,0 km/h (0 Bft) O-SO 120 ° 0 min 0 min 10,2 °C 18,4 °C
04.05.2026 21:48 18,5 °C 57 % 1009,7 hPa 0,0 mm 2,0 km/h (1 Bft) W-NW 290 ° 0 min 0 min 9,8 °C 18,5 °C
04.05.2026 21:43 18,5 °C 57 % 1008,7 hPa 0,0 mm 6,0 km/h (2 Bft) N 5 ° 0 min 0 min 9,8 °C 18,5 °C
04.05.2026 21:38 18,3 °C 59 % 1008,7 hPa 0,0 mm 10,0 km/h (2 Bft) N-NW 330 ° 0 min 0 min 10,1 °C 18,3 °C
04.05.2026 21:33 18,6 °C 57 % 1008,7 hPa 0,0 mm 9,4 km/h (2 Bft) NW 315 ° 0 min 0 min 9,9 °C 18,6 °C
_ Min-Zeit 05:33 16:38 18:48 - 02:03 - - - - 20:18 05:33
Minimum _ 10,4 °C 29 % 1005,6 hPa - 0,0 km/h (0 Bft) - - - - 6,1 °C 10,4 °C
_ Max-Zeit 16:48 06:48 07:03 02:03 13:58 - - 10:13 02:03 12:38 16:48
Maximum _ 28,2 °C 79 % 1014,2 hPa 0,0 mm 34,5 km/h
SW (5 Bft)
- - 7 min 0 min 12,6 °C 28,2 °C
Durchschnitt _ 18,7 °C 55 % 1010,2 hPa #0,0 mm 5,4 km/h (2 Bft) NW - #0 min. #0 min. 9,0 °C 18,7 °C